Regional Weather Roundup
Issued by NWS

Home | Current Version | Previous Version | Graphics & Text | Print | Product List | Glossary On
Versions: 1 2 3 4 5 6 7 8 9 10 11 12 13 14 15 16 17 18 19 20 21 22 23 24 25 26 27 28 29 30 31 32 33 34 35 36 37 38 39 40 41 42 43 44 45 46 47 48 49 50
000
ASUS43 KBIS 160902
RWRND

NORTH DAKOTA REGIONAL WEATHER ROUNDUP
NATIONAL WEATHER SERVICE BISMARCK ND
400 AM CDT MON OCT 16 2017

NOTE: "FAIR" INDICATES FEW OR NO CLOUDS BELOW 12,000 FEET WITH NO
SIGNIFICANT WEATHER AND/OR OBSTRUCTIONS TO VISIBILITY.


NDZ001>003-009>011-017-161000-
NORTHWEST NORTH DAKOTA

CITY           SKY/WX    TMP DP  RH WIND       PRES   REMARKS
WILLISTON      CLEAR     33  28  81 S5        29.98F
MINOT          CLEAR     46  31  55 S14       29.98F
MINOT AFB      CLEAR     37  30  76 SW10      29.96F
$$

NDZ018>021-031>035-040>046-161000-
SOUTHWEST NORTH DAKOTA

CITY           SKY/WX    TMP DP  RH WIND       PRES   REMARKS
BISMARCK       CLEAR     30  27  88 SE5       30.11F
DICKINSON      CLEAR     40  28  62 S14       30.04F
GARRISON         N/A     38  32  79 S10       30.04F
HETTINGER ARPT CLEAR     38  26  62 CALM      30.12F
$$

NDZ004>008-012>016-024-026-027-054-161000-
NORTHEAST NORTH DAKOTA

CITY           SKY/WX    TMP DP  RH WIND       PRES   REMARKS
GRAND FORKS    PTCLDY    32  29  88 SW6       30.10F
GRND FRKS AFB  CLOUDY    34  29  81 SW7       30.09F
DEVILS LAKE    CLEAR     43  33  68 SW13      30.07F
$$

NDZ022-023-025-028>030-036>039-047>053-161000-
SOUTHEAST NORTH DAKOTA

CITY           SKY/WX    TMP DP  RH WIND       PRES   REMARKS
FARGO          CLEAR     35  32  88 S7        30.14F
JAMESTOWN      CLOUDY    34  28  79 SW6       30.12F
$$





USA.gov is the U.S. government's official web portal to all federal, state and local government web resources and services.